Погода в Каваллино-Трепорти

Италия     45°27′13″N   12°27′31″E
темп.,
°C
ветер,
м/с
пор.,
м/с
влажн.,
%
обл.,
%
осадки,
мм/ч
давл.,
гПа
погр.,
м
8 мая, сб
сб823:00+13всв10147998 1.7 1013439
02:00+13всв12157356 1.7 1016661
05:00+11св61080100 0.0 1018432
08:00+11св697191 0.0 1020448
11:00+14всв4653100 0.0 1021815
14:00+16юв234794 0.0 1021833
17:00+16ююз2150100 0.0 1020353
20:00+15зюз11555 0.0 102038
9 мая, вс
вс923:00+14с115936 0.0 102111
02:00+13с22635 0.0 102168
05:00+12с22715 0.0 102164
08:00+13ссв33695 0.0 1021149
11:00+16юв11585 0.0 1021394
14:00+17ю32585 0.0 1020400
17:00+18ю32526 0.0 1019293
20:00+16ююв336415 0.0 101847
10 мая, пн
пн1023:00+16ю2266100 0.0 101923
02:00+16вюв017078 0.0 101811
05:00+14всв347259 0.0 101781
08:00+15св33744 0.0 1019147
11:00+18в55660 0.0 1018527
14:00+18вюв44725 0.0 1017411
17:00+18вюв4474100 0.0 1016321
20:00+17вюв348164 0.0 1016127
11 мая, вт
вт1123:00+16в348565 0.0 101690
02:00+16всв588457 0.0 1014206
05:00+15всв45815 0.0 1014127
08:00+17всв3474100 0.0 1014235
11:00+18всв5568100 0.0 1012454
14:00+19сз3567100 0.1 1012643
17:00+18ссз5866100 0.4 1010338
20:00+15св5691100 3.8 1008173
12 мая, ср
ср1223:00+15всв5695100 4.8 1006292
02:00+14св4597100 17.6 1004323
05:00+14с3492100 5.8 1004220
08:00+14ссз1291100 6.8 1004182
11:00+13зсз3493100 4.7 1006308
14:00+15зюз3482100 7.0 1007440
17:00+16ююв2179100 0.0 1006351
20:00+15юв4584100 0.1 1007235